Date String (YYYY-MM-DD hh:mm:ss) UTC,Instrument flags,Ambient pressure (hPa),Sample flow (lpm),Bypass flow (lpm),Sample temperature (°C),Ambient temperature (°C),ASC tube jacket temperature (°C),LED temperature (°C),Box temperature (°C),Sample RH (%),Span deviation,Mass concentration (μg/m³),Mass concentration (μg/m³),Mass concentration (μg/m³)
DateTimeUTC,F1_M11,P_M11,Q1_M11,Q2_M11,T1_M11,T2_M11,T3_M11,T4_M11,T5_M11,U1_M11,ZSPAN_M11,X2_M11,X0_M11,X1_M11
2023-02-10 21:00:00,,0829.6,5.00,0.00,23.1,21.9,00.0,31.9,25.0,06.2,0000.0,0003.58,0008.76,0002.78
2023-02-10 21:01:00,,0829.6,5.01,0.00,23.1,21.9,00.0,31.9,25.0,06.0,0000.0,0003.57,0008.46,0002.76
2023-02-10 21:02:00,,0829.6,5.02,0.00,23.1,21.9,00.0,31.9,25.0,05.9,0000.0,0003.58,0008.73,0002.74
2023-02-10 21:03:00,,0829.6,5.00,0.00,23.1,21.9,00.0,31.9,25.0,06.0,0000.0,0003.58,0008.82,0002.71
2023-02-10 21:04:00,,0829.5,5.00,0.00,23.1,21.9,00.0,31.9,25.0,06.0,0000.0,0003.57,0009.11,0002.69
2023-02-10 21:05:00,,0829.6,4.99,0.00,23.1,21.9,00.0,31.9,25.0,05.8,0000.0,0003.53,0009.80,0002.68
2023-02-10 21:06:00,,0829.6,5.01,0.00,23.1,21.9,00.0,31.9,25.0,06.0,0000.0,0003.51,0009.93,0002.66
2023-02-10 21:07:00,,0829.6,5.04,0.00,23.1,21.9,00.0,31.9,25.0,06.0,0000.0,0003.47,0009.86,0002.64
2023-02-10 21:08:00,,0829.5,4.98,0.00,23.1,21.9,00.0,31.9,25.0,06.2,0000.0,0003.49,0009.55,0002.66
2023-02-10 21:09:00,,0829.5,5.01,0.00,23.2,21.9,00.0,31.9,25.0,06.0,0000.0,0003.45,0009.28,0002.65
2023-02-10 21:10:00,,0829.5,5.00,0.00,23.2,21.9,00.0,31.9,25.0,06.0,0000.0,0003.46,0008.98,0002.63
2023-02-10 21:11:00,,0829.6,4.97,0.00,23.2,21.9,00.0,31.9,25.0,06.1,0000.0,0003.45,0009.45,0002.63
2023-02-10 21:12:00,,0829.5,4.98,0.00,23.2,21.9,00.0,31.9,25.0,06.0,0000.0,0003.44,0009.59,0002.62
2023-02-10 21:13:00,,0829.5,5.03,0.00,23.2,21.9,00.0,31.9,25.0,06.1,0000.0,0003.42,0009.94,0002.62
2023-02-10 21:14:00,,0829.6,5.04,0.00,23.2,22.0,00.0,31.9,25.0,06.3,0000.0,0003.44,0009.85,0002.64
2023-02-10 21:15:00,,0829.6,5.03,0.00,23.2,22.0,00.0,31.9,25.1,06.4,0000.0,0003.42,0010.24,0002.63
2023-02-10 21:16:00,,0829.6,5.02,0.00,23.2,22.0,00.0,32.0,25.1,06.7,0000.0,0003.40,0009.56,0002.62
2023-02-10 21:17:00,,0829.6,5.02,0.00,23.2,22.1,00.0,32.0,25.1,06.6,0000.0,0003.39,0009.53,0002.63
2023-02-10 21:18:00,,0829.6,4.96,0.00,23.2,22.1,00.0,32.0,25.1,06.7,0000.0,0003.38,0009.59,0002.64
2023-02-10 21:19:00,,0829.5,4.94,0.00,23.2,22.1,00.0,32.0,25.1,06.6,0000.0,0003.38,0009.49,0002.65
2023-02-10 21:20:00,,0829.5,5.01,0.00,23.3,22.1,00.0,32.0,25.1,06.6,0000.0,0003.42,0010.27,0002.66
2023-02-10 21:21:00,,0829.5,5.04,0.00,23.3,22.1,00.0,32.0,25.1,06.5,0000.0,0003.42,0010.38,0002.68
2023-02-10 21:22:00,,0829.5,5.03,0.00,23.3,22.1,00.0,32.0,25.1,06.5,0000.0,0003.45,0010.33,0002.68
2023-02-10 21:23:00,,0829.5,4.98,0.00,23.3,22.1,00.0,32.0,25.1,06.8,0000.0,0003.50,0010.29,0002.70
2023-02-10 21:24:00,,0829.5,5.00,0.00,23.3,22.1,00.0,32.0,25.1,06.6,0000.0,0003.52,0010.38,0002.71
2023-02-10 21:25:00,,0829.5,5.00,0.00,23.3,22.1,00.0,32.0,25.2,06.5,0000.0,0003.50,0010.44,0002.70
2023-02-10 21:26:00,,0829.5,4.98,0.00,23.3,22.1,00.0,32.0,25.1,06.5,0000.0,0003.51,0009.97,0002.71
2023-02-10 21:27:00,,0829.5,5.00,0.00,23.3,22.1,00.0,32.1,25.2,06.7,0000.0,0003.50,0009.68,0002.70
2023-02-10 21:28:00,,0829.5,5.00,0.00,23.3,22.1,00.0,32.1,25.1,07.0,0000.0,0003.50,0009.93,0002.71
2023-02-10 21:29:00,,0829.5,5.01,0.00,23.3,22.1,00.0,32.1,25.1,06.9,0000.0,0003.51,0009.81,0002.71
2023-02-10 21:30:00,,0829.5,4.98,0.00,23.3,22.1,00.0,32.1,25.1,06.9,0000.0,0003.49,0010.58,0002.71
2023-02-10 21:31:00,,0829.5,5.04,0.00,23.3,22.1,00.0,32.1,25.1,06.8,0000.0,0003.49,0009.98,0002.71
2023-02-10 21:32:00,,0829.5,5.06,0.00,23.3,22.1,00.0,32.1,25.2,06.8,0000.0,0003.48,0009.97,0002.71
2023-02-10 21:33:00,,0829.5,5.02,0.00,23.3,22.1,00.0,32.1,25.2,06.8,0000.0,0003.49,0010.50,0002.73
2023-02-10 21:34:00,,0829.5,4.97,0.00,23.3,22.1,00.0,32.1,25.2,06.6,0000.0,0003.50,0010.67,0002.74
2023-02-10 21:35:00,,0829.5,5.00,0.00,23.4,22.2,00.0,32.1,25.2,06.8,0000.0,0003.50,0010.38,0002.73
2023-02-10 21:36:00,,0829.4,4.97,0.00,23.4,22.2,00.0,32.1,25.2,07.1,0000.0,0003.51,0010.22,0002.75
2023-02-10 21:37:00,,0829.5,5.05,0.00,23.4,22.1,00.0,32.1,25.2,07.1,0000.0,0003.52,0010.18,0002.77
2023-02-10 21:38:00,,0829.5,4.99,0.00,23.4,22.1,00.0,32.1,25.2,07.0,0000.0,0003.57,0010.22,0002.80
2023-02-10 21:39:00,,0829.5,4.95,0.00,23.4,22.1,00.0,32.1,25.2,07.1,0000.0,0003.57,0009.73,0002.80
2023-02-10 21:40:00,,0829.5,5.05,0.00,23.4,22.1,00.0,32.1,25.2,06.9,0000.0,0003.56,0010.71,0002.80
2023-02-10 21:41:00,,0829.5,5.00,0.00,23.4,22.1,00.0,32.1,25.2,06.9,0000.0,0003.59,0010.40,0002.82
2023-02-10 21:42:00,,0829.5,5.00,0.00,23.4,22.1,00.0,32.1,25.2,07.0,0000.0,0003.60,0010.41,0002.83
2023-02-10 21:43:00,,0829.5,4.97,0.00,23.4,22.2,00.0,32.2,25.3,06.9,0000.0,0003.64,0010.39,0002.82
2023-02-10 21:44:00,,0829.5,4.99,0.00,23.4,22.2,00.0,32.2,25.2,06.8,0000.0,0003.66,0009.75,0002.81
2023-02-10 21:45:00,,0829.5,5.02,0.00,23.4,22.2,00.0,32.2,25.2,06.8,0000.0,0003.66,0009.90,0002.80
2023-02-10 21:46:00,,0829.5,4.94,0.00,23.4,22.2,00.0,32.2,25.2,06.8,0000.0,0003.63,0009.66,0002.78
2023-02-10 21:47:00,,0829.5,5.00,0.00,23.4,22.2,00.0,32.2,25.3,06.9,0000.0,0003.61,0009.73,0002.78
2023-02-10 21:48:00,,0829.5,4.99,0.00,23.4,22.2,00.0,32.2,25.3,06.8,0000.0,0003.58,0010.55,0002.77
2023-02-10 21:49:00,,0829.5,4.97,0.00,23.4,22.1,00.0,32.2,25.2,06.8,0000.0,0003.57,0011.26,0002.76
2023-02-10 21:50:00,,0829.5,5.02,0.00,23.4,22.2,00.0,32.2,25.3,07.0,0000.0,0003.59,0012.02,0002.75
2023-02-10 21:51:00,,0829.5,5.01,0.00,23.4,22.2,00.0,32.2,25.3,07.4,0000.0,0003.63,0012.29,0002.77
2023-02-10 21:52:00,,0829.5,5.03,0.00,23.4,22.2,00.0,32.2,25.3,07.3,0000.0,0003.65,0012.78,0002.77
2023-02-10 21:53:00,,0829.5,5.05,0.00,23.4,22.1,00.0,32.2,25.3,07.0,0000.0,0003.62,0013.05,0002.76
2023-02-10 21:54:00,,0829.5,4.98,0.00,23.4,22.1,00.0,32.2,25.3,07.1,0000.0,0003.62,0013.99,0002.78
2023-02-10 21:55:00,,0829.5,4.97,0.00,23.4,22.1,00.0,32.2,25.3,07.2,0000.0,0003.64,0014.01,0002.82
2023-02-10 21:56:00,,0829.5,4.97,0.00,23.4,22.1,00.0,32.2,25.2,07.3,0000.0,0003.64,0013.71,0002.84
2023-02-10 21:57:00,,0829.5,5.01,0.00,23.4,22.1,00.0,32.2,25.2,07.7,0000.0,0003.70,0014.81,0002.88
2023-02-10 21:58:00,,0829.5,5.01,0.00,23.4,22.1,00.0,32.2,25.3,08.1,0000.0,0003.78,0015.45,0002.95
2023-02-10 21:59:00,,0829.4,5.02,0.00,23.4,22.0,00.0,32.2,25.3,08.1,0000.0,0003.85,0015.59,0003.01
